Flag for Brazil Weather past 2 weeks in Santos, São Paulo, Brazil

Now
55 °F

Passing clouds.


Feels Like: 53 °F
Forecast: 58 / 74 °F
Wind: 10 mph from East

Location: Sao Paulo Airport

Current Time: Jul 30, 2014 at 4:01:45 AM

Latest Report: Jul 30, 2014 at 3:00 AM


Visibility: N/A

Pressure: 30.36 "Hg

Humidity: 82%

Dew point: 50 °F

Location of SantosLocation

Historic Weather in Santos — Graph

°F

Santos temperature yesterday

Maximum temperature yesterday: 66 °F (at 2:00 PM)
Minimum temperature yesterday: 57 °F (at 1:00 AM)
Average temperature yesterday: 60 °F

Past Weeks' High & Low Weather Summary

 TemperatureHumidityPressure
High79 °F (Jul 17, 2:00 PM)94% (Jul 26, 9:00 PM)30.48 "Hg (Jul 26, 9:00 PM)
Low52 °F (Jul 20, 6:00 AM)24% (Jul 23, 4:00 PM)29.98 "Hg (Jul 24, 1:00 PM)
Average61 °F69%30.25 "Hg
* Reported Jul 15 3:00 AM — Jul 30 3:00 AM, Santos, Weather by CustomWeather, © 2014

Note: Actual official high and low records may vary slightly from our data, if they occured in-between our weather recording intervals... More about our weather records

Advertising

Santos weather history for previous 24 hours

 ConditionsComfort  
Time TempWeatherWind HumidityBarometerVisibility
3:00 AM
Jul 30
55 °FPassing clouds.10 mph82%30.36 "HgN/A
2:00 AM55 °FClear.5 mph82%30.39 "Hg10 mi
1:00 AM55 °FClear.6 mph82%30.39 "Hg10 mi
12:00 AM57 °FClear.6 mph77%30.42 "Hg10 mi
11:00 PM
Jul 29
57 °FClear.6 mph77%30.42 "Hg10 mi
10:00 PM59 °FClear.8 mph72%30.42 "Hg10 mi
9:00 PM59 °FClear.6 mph72%30.42 "Hg10 mi
8:00 PM57 °FClear.6 mph82%30.42 "Hg10 mi
7:00 PM59 °FPassing clouds.9 mph82%30.39 "HgN/A
6:00 PM59 °FPassing clouds.12 mph77%30.39 "HgN/A
5:00 PM63 °FPassing clouds.13 mph73%30.39 "HgN/A
3:00 PM66 °FPartly sunny.8 mph56%30.36 "HgN/A
2:00 PM66 °FPartly sunny.9 mph56%30.39 "HgN/A
1:00 PM64 °FPartly sunny.10 mph60%30.42 "HgN/A
12:00 PM63 °FPartly sunny.10 mph64%30.45 "HgN/A
11:00 AM63 °FPartly sunny.9 mph64%30.48 "HgN/A
10:00 AM61 °FPartly sunny.13 mph68%30.48 "HgN/A
9:00 AM59 °FPartly sunny.10 mph72%30.45 "HgN/A
8:00 AM59 °FPartly sunny.7 mph72%30.45 "HgN/A
7:00 AM59 °FOvercast.12 mph77%30.42 "HgN/A
6:00 AM57 °FMostly cloudy.7 mph82%30.42 "HgN/A
5:00 AM57 °FPassing clouds.9 mph82%30.42 "HgN/A
4:00 AM57 °FPartly cloudy.6 mph82%30.42 "HgN/A
Weather by CustomWeather, © 2014

See weather overviewHow to use our weather pages